Location: Unspecified
(0.0000°N, 0.0000°E)
Time: 02:18:43
(UTC+00:00)

S-56A Canister/Altair - Pass Details

Date: 15 December 2018
Orbit: 633 x 2500 km, 38.9° (Epoch: 15 January)

Event Time Altitude Azimuth Distance (km) Brightness Sun altitude
Rises 13:50:27 0° 275° (W) 5,690 12.3 53.6°
Reaches altitude 10° 13:56:40 10° 256° (WSW) 4,313 12.1 52.4°
Maximum altitude 14:02:33 15° 224° (SW) 3,453 11.9 51.3°
Drops below altitude 10° 14:07:30 10° 191° (S) 3,473 11.5 50.3°
Sets 14:11:39 0° 168° (SSE) 4,080 11.5 49.5°
